Showing default

AAC-HSI-SAT2, 56995

Orbit data source: Space-Track

AAC-HSI-SAT2, 56995 is a UK payload satellite in SSO that was launched on Mon, 12 Jun 2023 UTC via an FALCON 9 launch vehicle from the Air Force Western Test Range (AFWTR). Payload-class satellites include a variety of spacecraft equipped with specific instruments for various scientific and technological missions. These include communications satellites like Starlink; space stations such as the ISS; scientific satellites like the Hubble; Earth observation satellites from companies like Planet Labs, Umbra, and HawkEye 360; GPS; miniature CubeSats for education and research; and military/defense satellites.

Loading next visibility...
Identifier
56995, 2023-084BX
Orbit
SSO
Country
Flag of UKUK
Related business
Manufacturer
AAC ClydeSpace
Mission
Operational Commercial Imaging
Bus & Motor
CUBESAT 6U, Unknown motor
Mass
10 kg wet, ~10 kg dry
Launch date (UTC)
2023-06-12 (3 years ago)
Launch vehicle
FALCON 9
Launch site
Air Force Western Test Range (AFWTR)
Object type
Payload
Rocket body
Debris
Shape & HBR
Box + 2 Pan, 1.0 m
Radar Cross Section
0.092 m², Medium (>0.1 m² and < 1m²)

Expand to show TLE details & history
Last TLE update: 8 hours ago

TLE from 8 hours ago
0 AAC-HSI-SAT2
1 56995U 23084BX  26063.14694775  .00007039  00000-0  33366-3 0  9994
2 56995  97.8076 209.6180 0012610 183.2893 176.8260 15.19567125150382
Epoch: 2026-03-04T03:31Z
TLE epoch observation values (Epoch: 2026-03-04T03:31:36.285Z)
Latitude
-0.00003°
Longitude
-5.19902°
Altitude
518.897 km
Speed
7.599 km/s
True Right ascension
13h 58m 28s
True Declination
0° 00' 00"
Sunlit
Object was in full shadow at epoch
Visualization orbit readout
Latitude
Unknown
Longitude
Unknown
Altitude
Unknown
Speed
Unknown
Apparent Right ascension
Unknown
Apparent Declination
Unknown
Sunlit
N/A
Visualization observer readout
Local Sidereal Time
15:05:49
Azimuth
Unknown
Elevation
Unknown
Doppler factor
Unknown
Orbital elements
Apogee altitude
512.81 km
Perigee altitude
495.453 km
Semi-major axis
6,882.269 km
Eccentricity
0.00126
Inclination
97.8076°
RAAN
209.618°
Arg. of periapsis
183.2893°
True anomaly
176.83399°
Mean anomaly
176.826°
Eccentric anomaly
176.83°
Mean motion
3.80142 °/min
Orbital period
94.7 mins
BSTAR
0.00033366
Loading maneuver chart data...
Computing Atmospheric mass density...
Loading historical data...
Loading historical data...
Loading historical data...
Loading historical data...
Loading historical data...
Loading historical data...
Loading historical data...

Documentation

Showing up to 5 results
|